Weather in Starosubkhangulovo

Russia / Republic of Bashkortostan     53°06′07″N   57°26′29″E
temp.,
°C
wind,
m/s
gust,
m/s
humid.,
%
clouds,
%
prec.,
mm/h
press.,
hPa
HPBL,
m
25 february, thu
thu2523:00−23nnw2109264 0.0 1023362
02:00−24wnw229654 0.0 102548
05:00−27nw129742 0.0 102819
08:00−30nnw11980 0.0 103119
11:00−22n12850 0.0 1032245
14:00−14nw12720 0.0 1031475
17:00−14wsw34760 0.0 1031722
20:00−23sw23971 0.0 103255
26 february, fri
fri2623:00−27ssw22941 0.0 103319
02:00−28ssw22920 0.0 103219
05:00−28s12901 0.0 103119
08:00−24sse1190100 0.0 102936
11:00−18s2592100 0.1 1028355
14:00−14s3687100 0.1 1025704
17:00−13s3787100 0.3 1024748
20:00−18sse3894100 0.1 1023397
27 february, sat
sat2723:00−18sse2895100 0.3 1021389
02:00−17sse3994100 0.1 1018380
05:00−16sse41094100 0.4 1015447
08:00−13sse41194100 0.8 1010513
11:00−10s41194100 3.8 1007633
14:00−4s4992100 1.3 1004726
17:00−2ssw4995100 1.9 1002634
20:00−2wsw31095100 1.2 1002592
28 february, sun
sun2823:00−2sw399697 1.4 1002654
02:00−4sw289798 0.4 1001322
05:00−5sw259799 0.8 1002154
08:00−5ssw2797100 0.4 1001262
11:00−2sw479399 0.6 1001663
14:00−1sw4896100 0.4 1002729
17:00−2sw4895100 1.3 1003666
20:00−4ssw2398100 0.7 100482
1 march, mon
mon123:00−5ssw2497100 1.1 1006114
02:00−7ssw1297100 0.3 100722
05:00−10sw229796 0.6 101084
08:00−14sw129793 0.1 101221
11:00−9wsw129397 0.1 1014232
14:00−4w2291100 0.1 1014450
17:00−5w2393100 0.2 1015359
20:00−10wsw249798 0.1 1017113